Location: Alta
(39.2070°N, 120.8111°W)
Time: 06:58:12
(UTC+00:00)

CZ-4B DEB - Pass Details

Date: 13 December 2023
Orbit: 838 x 858 km, 99.0° (Epoch: 02 March)

Event Time Altitude Azimuth Distance (km) Brightness Sun altitude
Rises 01:49:31 0° 126° (SE) 3,421 7.0 -13.0°
Enters shadow 01:51:57 - 114° (ESE) 2,626 6.3 -13.4°
Exits shadow 01:54:27 18° 91° (E) 2,008 5.6 -13.9°
Maximum altitude 01:56:27 21° 63° (ENE) 1,823 5.3 -14.3°
Drops below altitude 10° 02:00:31 10° 16° (NNE) 2,500 6.3 -15.0°
Sets 02:03:24 0° 1° (N) 3,439 7.2 -15.5°
